When you browse on this site, cookies collect data to enhance your experience and personalize the content and advertising you see.
Visit our Privacy Policy to learn more. By continuing to use the site, you agree to this use of cookies and data.
  • In Schweiz
  • Länderverzeichnis
  • Für 7 Tage
  • Wassertemperatur
  • Satellitenkarten
  • Wetterkarte
  • Widgets
  • user-avatar
    Anmelden

    Stündliche Wetter Karabalta

    Heute, 17 Juni, Montag

    Zeit Temperatur Niederschläge Wind Luftdruck Luftfeuchtigkeit
    00:00 +18°C° 0 mm 2 m/S 692 mmHg 53%
    01:00 +17°C° 0 mm 2 m/S 691 mmHg 53%
    02:00 +17°C° 0 mm 2 m/S 691 mmHg 53%
    03:00 +17°C° 0 mm 2 m/S 691 mmHg 53%
    04:00 +16°C° 0 mm 2 m/S 691 mmHg 54%
    05:00 +17°C° 0 mm 2 m/S 691 mmHg 56%
    06:00 +18°C° 0 mm 2 m/S 691 mmHg 52%
    07:00 +20°C° 0 mm 2 m/S 692 mmHg 49%
    08:00 +23°C° 0 mm 2 m/S 692 mmHg 45%
    09:00 +24°C° 0 mm 2 m/S 692 mmHg 43%
    10:00 +25°C° 0 mm 2 m/S 692 mmHg 42%
    11:00 +27°C° 0 mm 2 m/S 692 mmHg 39%
    12:00 +27°C° 0.1 mm 2 m/S 692 mmHg 38%
    13:00 +28°C° 0.1 mm 2 m/S 692 mmHg 38%
    14:00 +28°C° 0.1 mm 2 m/S 692 mmHg 37%
    15:00 +28°C° 0.2 mm 2 m/S 691 mmHg 38%
    16:00 +28°C° 0.2 mm 2 m/S 691 mmHg 40%
    17:00 +28°C° 0.2 mm 2 m/S 691 mmHg 41%
    18:00 +26°C° 0 mm 2 m/S 691 mmHg 45%
    19:00 +24°C° 0 mm 2 m/S 691 mmHg 49%
    20:00 +22°C° 0 mm 1 m/S 691 mmHg 52%
    21:00 +21°C° 0 mm 1 m/S 691 mmHg 52%
    22:00 +20°C° 0 mm 2 m/S 691 mmHg 52%
    23:00 +19°C° 0 mm 2 m/S 691 mmHg 52%

    Morgen, 18 Juni, Dienstag

    Zeit Temperatur Niederschläge Wind Luftdruck Luftfeuchtigkeit
    00:00 +19°C° 0 mm 2 m/S 690 mmHg 51%
    01:00 +18°C° 0 mm 2 m/S 690 mmHg 51%
    02:00 +18°C° 0 mm 2 m/S 690 mmHg 51%
    03:00 +18°C° 0 mm 2 m/S 690 mmHg 51%
    04:00 +18°C° 0 mm 2 m/S 690 mmHg 52%
    05:00 +18°C° 0 mm 2 m/S 690 mmHg 52%
    06:00 +20°C° 0 mm 2 m/S 690 mmHg 48%
    07:00 +23°C° 0 mm 1 m/S 691 mmHg 45%
    08:00 +25°C° 0 mm 1 m/S 691 mmHg 41%
    09:00 +26°C° 0 mm 1 m/S 691 mmHg 38%
    10:00 +27°C° 0 mm 1 m/S 691 mmHg 35%
    11:00 +29°C° 0 mm 2 m/S 691 mmHg 33%
    12:00 +29°C° 0.1 mm 2 m/S 691 mmHg 33%
    13:00 +29°C° 0.1 mm 2 m/S 691 mmHg 33%
    14:00 +30°C° 0.1 mm 2 m/S 691 mmHg 33%
    15:00 +29°C° 0.4 mm 4 m/S 690 mmHg 38%
    16:00 +27°C° 0.4 mm 5 m/S 690 mmHg 43%
    17:00 +26°C° 0.4 mm 6 m/S 690 mmHg 48%
    18:00 +25°C° 0.2 mm 5 m/S 691 mmHg 47%
    19:00 +22°C° 0.2 mm 4 m/S 691 mmHg 47%
    20:00 +21°C° 0.2 mm 3 m/S 691 mmHg 46%
    21:00 +21°C° 0 mm 3 m/S 691 mmHg 47%
    22:00 +20°C° 0 mm 3 m/S 691 mmHg 47%
    23:00 +19°C° 0 mm 3 m/S 691 mmHg 48%

    übermorgen, 19 Juni, Mittwoch

    Zeit Temperatur Niederschläge Wind Luftdruck Luftfeuchtigkeit
    00:00 +19°C° 0 mm 3 m/S 691 mmHg 48%
    01:00 +18°C° 0 mm 3 m/S 691 mmHg 48%
    02:00 +18°C° 0 mm 3 m/S 691 mmHg 48%
    03:00 +18°C° 0 mm 3 m/S 690 mmHg 49%
    04:00 +18°C° 0 mm 2 m/S 690 mmHg 50%
    05:00 +18°C° 0 mm 2 m/S 690 mmHg 51%
    06:00 +20°C° 0 mm 2 m/S 690 mmHg 48%
    07:00 +23°C° 0 mm 2 m/S 691 mmHg 46%
    08:00 +25°C° 0 mm 1 m/S 691 mmHg 43%
    09:00 +26°C° 0.2 mm 1 m/S 691 mmHg 41%
    10:00 +27°C° 0.2 mm 2 m/S 691 mmHg 40%
    11:00 +28°C° 0.2 mm 2 m/S 691 mmHg 39%
    12:00 +28°C° 0.4 mm 2 m/S 690 mmHg 39%
    13:00 +28°C° 0.4 mm 2 m/S 690 mmHg 40%
    14:00 +28°C° 0.4 mm 2 m/S 690 mmHg 40%
    15:00 +27°C° 0.3 mm 3 m/S 690 mmHg 46%
    16:00 +25°C° 0.3 mm 3 m/S 690 mmHg 51%
    17:00 +24°C° 0.3 mm 3 m/S 691 mmHg 56%
    18:00 +21°C° 1 mm 3 m/S 691 mmHg 66%
    19:00 +19°C° 1 mm 3 m/S 691 mmHg 76%
    20:00 +17°C° 1 mm 3 m/S 692 mmHg 86%
    21:00 +18°C° 0.2 mm 3 m/S 692 mmHg 81%
    22:00 +18°C° 0.2 mm 3 m/S 692 mmHg 77%
    23:00 +18°C° 0.2 mm 3 m/S 692 mmHg 72%

    20 Juni, Donnerstag

    Zeit Temperatur Niederschläge Wind Luftdruck Luftfeuchtigkeit
    00:00 +17°C° 0 mm 3 m/S 692 mmHg 72%
    01:00 +17°C° 0 mm 3 m/S 692 mmHg 73%
    02:00 +16°C° 0 mm 3 m/S 691 mmHg 74%
    03:00 +16°C° 0 mm 3 m/S 691 mmHg 71%
    04:00 +16°C° 0 mm 3 m/S 691 mmHg 69%
    05:00 +16°C° 0 mm 3 m/S 692 mmHg 67%
    06:00 +18°C° 0 mm 2 m/S 692 mmHg 62%
    07:00 +21°C° 0 mm 2 m/S 692 mmHg 56%
    08:00 +24°C° 0 mm 2 m/S 692 mmHg 50%
    09:00 +25°C° 0.1 mm 2 m/S 692 mmHg 46%
    10:00 +27°C° 0.1 mm 2 m/S 692 mmHg 42%
    11:00 +28°C° 0.1 mm 2 m/S 692 mmHg 37%
    12:00 +29°C° 0.2 mm 2 m/S 692 mmHg 36%
    13:00 +30°C° 0.2 mm 2 m/S 692 mmHg 34%
    14:00 +30°C° 0.2 mm 2 m/S 692 mmHg 33%
    15:00 +30°C° 0.1 mm 2 m/S 692 mmHg 35%
    16:00 +29°C° 0.1 mm 2 m/S 692 mmHg 36%
    17:00 +29°C° 0.1 mm 2 m/S 692 mmHg 38%
    18:00 +27°C° 0 mm 2 m/S 692 mmHg 40%
    19:00 +26°C° 0 mm 2 m/S 692 mmHg 42%
    20:00 +24°C° 0 mm 2 m/S 692 mmHg 45%
    21:00 +23°C° 0 mm 2 m/S 692 mmHg 46%
    22:00 +21°C° 0 mm 2 m/S 692 mmHg 46%
    23:00 +20°C° 0 mm 2 m/S 692 mmHg 47%

    21 Juni, Freitag

    Zeit Temperatur Niederschläge Wind Luftdruck Luftfeuchtigkeit
    00:00 +20°C° 0 mm 2 m/S 691 mmHg 48%
    01:00 +19°C° 0 mm 2 m/S 691 mmHg 49%
    02:00 +19°C° 0 mm 2 m/S 691 mmHg 49%
    03:00 +19°C° 0 mm 2 m/S 691 mmHg 49%
    04:00 +19°C° 0 mm 2 m/S 691 mmHg 50%
    05:00 +19°C° 0 mm 2 m/S 691 mmHg 50%
    06:00 +21°C° 0 mm 2 m/S 691 mmHg 47%
    07:00 +25°C° 0 mm 1 m/S 692 mmHg 43%
    08:00 +27°C° 0 mm 1 m/S 692 mmHg 40%
    09:00 +28°C° 0.1 mm 1 m/S 692 mmHg 38%
    10:00 +29°C° 0.1 mm 1 m/S 692 mmHg 35%
    11:00 +31°C° 0.1 mm 2 m/S 692 mmHg 33%
    12:00 +31°C° 0.2 mm 2 m/S 692 mmHg 32%
    13:00 +32°C° 0.2 mm 1 m/S 691 mmHg 31%
    14:00 +33°C° 0.2 mm 1 m/S 691 mmHg 30%
    15:00 +32°C° 0.2 mm 2 m/S 691 mmHg 32%
    16:00 +32°C° 0.2 mm 2 m/S 691 mmHg 34%
    17:00 +31°C° 0.2 mm 2 m/S 691 mmHg 37%
    18:00 +29°C° 0.2 mm 3 m/S 690 mmHg 41%
    19:00 +27°C° 0.2 mm 4 m/S 690 mmHg 46%
    20:00 +23°C° 0.2 mm 4 m/S 690 mmHg 50%
    21:00 +23°C° 0 mm 4 m/S 690 mmHg 49%
    22:00 +22°C° 0 mm 4 m/S 690 mmHg 49%
    23:00 +22°C° 0 mm 3 m/S 690 mmHg 49%

    22 Juni, Samstag

    Zeit Temperatur Niederschläge Wind Luftdruck Luftfeuchtigkeit
    00:00 +21°C° 0 mm 3 m/S 690 mmHg 49%
    01:00 +21°C° 0 mm 3 m/S 690 mmHg 50%
    02:00 +21°C° 0 mm 3 m/S 689 mmHg 51%
    03:00 +21°C° 0 mm 3 m/S 690 mmHg 51%
    04:00 +21°C° 0 mm 2 m/S 690 mmHg 50%
    05:00 +21°C° 0 mm 2 m/S 690 mmHg 49%
    06:00 +23°C° 0 mm 1 m/S 690 mmHg 47%
    07:00 +25°C° 0 mm 1 m/S 691 mmHg 44%
    08:00 +27°C° 0 mm 1 m/S 691 mmHg 41%
    09:00 +28°C° 0.2 mm 1 m/S 692 mmHg 39%
    10:00 +29°C° 0.2 mm 2 m/S 692 mmHg 37%
    11:00 +31°C° 0.2 mm 2 m/S 692 mmHg 35%
    12:00 +31°C° 0.4 mm 2 m/S 692 mmHg 34%
    13:00 +31°C° 0.4 mm 2 m/S 692 mmHg 33%
    14:00 +32°C° 0.4 mm 2 m/S 692 mmHg 33%
    15:00 +30°C° 0.6 mm 4 m/S 691 mmHg 39%
    16:00 +27°C° 0.6 mm 6 m/S 691 mmHg 46%
    17:00 +24°C° 0.6 mm 7 m/S 691 mmHg 53%
    18:00 +23°C° 0.1 mm 6 m/S 691 mmHg 56%
    19:00 +22°C° 0.1 mm 4 m/S 692 mmHg 59%
    20:00 +21°C° 0.1 mm 2 m/S 692 mmHg 63%
    21:00 +21°C° 0 mm 2 m/S 692 mmHg 60%
    22:00 +21°C° 0 mm 3 m/S 692 mmHg 57%
    23:00 +21°C° 0 mm 3 m/S 692 mmHg 54%
    Mehr zeigen